Flag for Netherlands Weather past 2 weeks in Breda, Netherlands

Now
66 °F

Passing clouds.


Feels Like: 66 °F
Forecast: 46 / 61 °F
Wind: 7 mph from Southwest

Location: Gilze-Rijen

Current Time: May 22, 2015 at 2:24:37 PM

Latest Report: May 22, 2015 at 1:55 PM


Visibility: N/A

Pressure: 30.27 "Hg

Humidity: 52%

Dew point: 48 °F

Location of BredaLocation

Historic Weather in Breda — Graph

°F

Breda temperature yesterday

Maximum temperature yesterday: 63 °F (at 12:25 PM)
Minimum temperature yesterday: 41 °F (at 5:25 AM)
Average temperature yesterday: 53 °F

Past Weeks' High & Low Weather Summary

 TemperatureHumidityPressure
High79 °F (May 11, 3:25 PM)100% (May 8, 12:55 AM)30.33 "Hg (May 8, 12:55 AM)
Low41 °F (May 10, 6:25 AM)32% (May 11, 3:25 PM)29.62 "Hg (May 18, 8:25 PM)
Average55 °F71%30.05 "Hg
* Reported May 7 12:25 PM — May 22 12:55 PM, Breda, Weather by CustomWeather, © 2015

Note: Actual official high and low records may vary slightly from our data, if they occured in-between our weather recording intervals... More about our weather records

Advertising

Breda weather history for previous 24 hours

 ConditionsComfort  
Time TempWeatherWind HumidityBarometerVisibility
12:55 PM
Fri, May 22
64 °FPassing clouds.7 mph56%30.27 "HgN/A
12:25 PM63 °FPassing clouds.8 mph59%30.27 "HgN/A
11:55 AM61 °FPassing clouds.9 mph63%30.30 "HgN/A
11:25 AM61 °FScattered clouds.7 mph68%30.30 "HgN/A
10:55 AM61 °FPassing clouds.9 mph68%30.30 "HgN/A
10:25 AM57 °FPassing clouds.6 mph72%30.30 "HgN/A
9:55 AM57 °FPassing clouds.7 mph72%30.30 "HgN/A
9:25 AM57 °FPassing clouds.7 mph67%30.30 "HgN/A
8:55 AM55 °FPassing clouds.7 mph72%30.30 "HgN/A
8:25 AM55 °FScattered clouds.7 mph72%30.30 "HgN/A
7:55 AM54 °FScattered clouds.6 mph72%30.30 "HgN/A
7:25 AM54 °FPartly sunny.6 mph72%30.30 "HgN/A
6:55 AM54 °FPartly sunny.7 mph72%30.30 "HgN/A
6:25 AM52 °FOvercast.6 mph77%30.30 "HgN/A
5:55 AM52 °FPassing clouds.6 mph77%30.30 "HgN/A
5:25 AM52 °FOvercast.6 mph77%30.30 "HgN/A
4:55 AM52 °FPassing clouds.6 mph77%30.30 "HgN/A
4:25 AM52 °FPassing clouds.6 mph77%30.30 "HgN/A
3:55 AM52 °FPassing clouds.5 mph77%30.30 "HgN/A
3:25 AM52 °FPassing clouds.5 mph77%30.33 "HgN/A
2:55 AM52 °FOvercast.5 mph77%30.33 "HgN/A
2:25 AM52 °FPassing clouds.5 mph77%30.33 "HgN/A
1:55 AM50 °FOvercast.5 mph82%30.33 "HgN/A
1:25 AM50 °FPassing clouds.1 mph82%30.33 "HgN/A
12:55 AM52 °FPartly cloudy.1 mph77%30.33 "HgN/A
12:25 AM52 °FPassing clouds.2 mph82%30.33 "HgN/A
11:55 PM
Thu, May 21
54 °FPartly cloudy.3 mph72%30.33 "HgN/A
11:25 PM54 °FPassing clouds.3 mph72%30.33 "HgN/A
10:55 PM52 °FPassing clouds.2 mph77%30.33 "HgN/A
10:25 PM54 °FPartly sunny.2 mph72%30.33 "HgN/A
9:55 PM55 °FPartly sunny.3 mph63%30.33 "HgN/A
9:25 PM55 °FPartly sunny.7 mph59%30.30 "HgN/A
8:55 PM57 °FPassing clouds.8 mph55%30.30 "HgN/A
8:25 PM57 °FPartly sunny.9 mph55%30.30 "HgN/A
7:55 PM59 °FPartly sunny.10 mph55%30.30 "HgN/A
7:25 PM59 °FPartly sunny.13 mph51%30.30 "HgN/A
6:55 PM61 °FRefreshingly cool.13 mph52%30.30 "HgN/A
6:25 PM61 °FPassing clouds.15 mph55%30.30 "HgN/A
5:55 PM61 °FPassing clouds.14 mph55%30.27 "HgN/A
5:25 PM63 °FMild.15 mph45%30.27 "HgN/A
4:55 PM63 °FPassing clouds.15 mph45%30.27 "HgN/A
4:25 PM63 °FScattered clouds.14 mph52%30.27 "HgN/A
3:55 PM63 °FPassing clouds.15 mph52%30.27 "HgN/A
3:25 PM63 °FPassing clouds.13 mph52%30.27 "HgN/A
2:55 PM63 °FBroken clouds.16 mph52%30.27 "HgN/A
2:25 PM63 °FMild.13 mph49%30.27 "HgN/A
Weather by CustomWeather, © 2015

See weather overviewHow to use our weather pages